FENGYUN 1C DEB

Satellite information

Favourite Embed

Satellite Type and Status

DEBRISIN ORBIT

Key statistics

Satellite FENGYUN 1C DEB at a glance.

Uptime

9615

Days in orbit

Revolutions

≈ 14.1

Per day

Orbit

SSO

Sun Synchronous Orbit

Inclination

99.2

Latest

Satellite identification and parameters

Extended collection of information and parameters for FENGYUN 1C DEB.

Object identification

Identified? True

Debris? True

Object name: FENGYUN 1C DEB

International designator: 1999-025AZR

Object number (NORAD): 30927

Object ID (CCSDS): 30927

Country: PEOPLES REPUBLIC OF CHINA (PRC)

Current information (Y/N): Y

RCS size: SMALL

Orbital parameters

Period: 102.264 minutes

Inclination: 99.1877 deg

SMA: 7243.959 km

Apoapsis: 937.787 km

Periapsis: 793.861 km

RAAN: 300.9907 deg

Eccentricy: 0.00993419

Argument of periapsis: 295.7221 deg

Mean anomaly: 63.3718 deg

Mean motion: 14.08117145 rev/day

Mean motion (dot): 0.00002847 rev/day2

B* drag term: 0.0016231045 1/REarth

Two-line elements (TLE)

Creation date: Aug. 31, 2025, 2:26 a.m.

Reference frame: TEME

Reference center: EARTH

Epoch: Aug. 30, 2025, 10:14 a.m. UTC

TLE line 0: 0 FENGYUN 1C DEB

TLE line 1: 1 30927U 99025AZR 25242.42664650 .00002847 00000-0 16231-2 0 9990

TLE line 2: 2 30927 99.1877 300.9907 0099342 295.7221 63.3718 14.08117145942158

Live tracking on map

Real-time ground track for satellite FENGYUN 1C DEB.

In-orbit conjunctions

A list of the most updated potential collisions computed for object FENGYUN 1C DEB.

Target Orbit TCA Probability of collision Miss distance Type
PICOSAT 9 LEO 2025-06-25 07:00:31 0.0004424318 364.0 (m) PAYLOAD
DELTA 1 DEB SSO 2024-09-26 11:02:34 0.0001003423 922.0 (m) DEBRIS

Associated space launch

Chinese polar orbiting meteorological satellite

FENGYUN 1C DEB was lifted into orbit during the mission ‘Long March 4B | Feng Yun 1C’, on board a Long March 4B space rocket.

The launch took place on May 10, 1999, 1:33 a.m. from Launch Complex 7.

For more information about the launch, click the button.

Launch to space Long March 4B | Feng Yun 1C
Long March 4B | Feng Yun 1C

Agency: N/A

Status: Launch Successful

Launch date: May 10, 1999, 1:33 a.m. UTC

Rocket: Long March 4B

Launch pad: Launch Complex 7

Location: Taiyuan Satellite Launch Center, People's Republic of China

...

Latest news about this satellite

There are no fresh news available about this satellite. Check back as we update our databases every day.


Newsletter sign-up

Weekly statistics, charts and insights to help you stay on top of the space industry.